Regional Weather Roundup
Issued by NWS Goodland, KS

Home | Current Version | Previous Version | Graphics & Text | Print | Product List | Glossary On
Versions: 1 2 3 4 5 6 7 8 9 10 11 12 13 14 15 16 17 18 19 20 21 22 23 24 25 26 27 28 29 30 31 32 33 34 35 36 37 38 39 40 41 42 43 44 45 46 47 48 49 50
000
ASUS43 KGLD 091808
RWRGLD

GOODLAND FORECAST AREA HOURLY WEATHER ROUNDUP
NATIONAL WEATHER SERVICE GOODLAND KS
1100 AM MST FRI DEC 09 2016

...OFFICIAL OBSERVATIONS...

CITY           SKY/WX    TMP DP  RH WIND       PRES   REMARKS
GOODLAND KS    SUNNY     27  17  66 S22G28    30.19F WCI  13
HILL CITY KS   CLOUDY    26  10  50 S16G23    30.38F WCI  14
IMPERIAL NEB   CLOUDY    21  12  68 S12       30.24F WCI   9
MCCOOK NEB     CLOUDY    24  12  60 S12       30.32F WCI  13
AKRON CO       SUNNY     19   9  65 W5        30.12F
BURLINGTON CO  SUNNY     32  17  54 S16       30.16F
LIMON CO       SUNNY     27  14  58 CALM      30.13F
$$

...UNOFFICIAL OBSERVATIONS...

CITY           SKY/WX    TMP DP  RH WIND       PRES   REMARKS
COLBY KS       MOSUNNY   28  19  69 S20       30.26F WCI  15
LENORA KS        N/A     25  32 100 MISG        N/A
NORTON KS      CLOUDY    25  10  54 SE16      30.34F WCI  12
SHARON SPRINGS   N/A     30  22  72 S18         N/A  WCI  18
TRENTON NEB      N/A     23  32 100 S12         N/A  WCI  12
KIT CARSON CO    N/A     29  13  51 MISG        N/A
YUMA CO        FAIR      21   9  58 CALM      30.17F
$$



USA.gov is the U.S. government's official web portal to all federal, state and local government web resources and services.